Location: Erskine
(52.3216°N, 112.8806°W)
Time: 13:25:16
(UTC+00:00)

NOAA 15 - Pass Details

Date: 09 December 2023
Orbit: 797 x 810 km, 98.6° (Epoch: 01 March)

Event Time Altitude Azimuth Distance (km) Brightness Sun altitude
Rises 00:57:12 0° 129° (SE) 3,319 7.5 -14.0°
Reaches altitude 10° 00:59:46 10° 119° (ESE) 2,391 6.7 -14.4°
Maximum altitude 01:04:19 30° 60° (ENE) 1,411 5.3 -15.0°
Drops below altitude 10° 01:08:52 10° 1° (N) 2,396 6.9 -15.7°
Sets 01:11:26 0° 351° (N) 3,329 7.7 -16.1°
